Regional Weather Roundup
Issued by NWS Burlington, VT

Home | Current Version | Previous Version | Text Only | Print | Product List | Glossary On
Versions: 1 2 3 4 5 6 7 8 9 10 11 12 13 14 15 16 17 18 19 20 21 22 23 24 25 26 27 28 29 30 31 32 33 34 35 36 37 38 39 40 41 42 43 44 45 46 47 48 49 50
000
ASUS41 KBTV 061130
RWRBTV
VERMONT REGIONAL WEATHER ROUNDUP
NATIONAL WEATHER SERVICE BURLINGTON VT
600 AM EST SAT FEB 06 2016

NOTE: "FAIR" INDICATES FEW OR NO CLOUDS BELOW 12,000 FEET WITH NO
SIGNIFICANT WEATHER AND/OR OBSTRUCTIONS TO VISIBILITY.

* THESE REPORTS ARE NOT UNDER NWS QUALITY CONTROL AND/OR DO NOT
  REPORT WEATHER SUCH AS PRECIPITATION AND FOG.

VTZ001>019-061200-
_____VERMONT_____


CITY           SKY/WX    TMP DP  RH WIND       PRES   REMARKS
BURLINGTON     CLOUDY    26  14  60 S10       30.24R WCI  16
MONTPELIER     FAIR      22  11  62 S5        30.23S WCI  16
MORRISVILLE    CLOUDY    24  16  71 CALM      30.22R
ST. JOHNSBURY*   N/A     20  13  74 MISG      30.22R
LYNDONVILLE*   LGT SNOW  18  13  80 SE5       30.21R WCI  11
RUTLAND*       FAIR      18  12  79 E9        30.26S WCI   6
SPRINGFIELD    FAIR      17  13  84 CALM      30.29R
HIGHGATE*      FLURRIES  27  19  72 S6        30.23R WCI  20
NEWPORT*       CLOUDY    22  16  78 SW5       30.19S WCI  15
BENNINGTON     FAIR      20  16  84 CALM      30.28S
SUTTON*          N/A     16 N/A N/A MISG        N/A
GALLUP MILLS*    N/A     14 N/A N/A MISG        N/A
UNION VILLAGE*   N/A     16 N/A N/A MISG        N/A
MT. MANSFIELD*   N/A     12 N/A N/A NW35        N/A  WCI -10

_____LAKE CHAMPLAIN_____


CITY           SKY/WX    TMP DP  RH WIND       PRES   REMARKS
COLCHESTER RF*   N/A     30  25  80 S23         N/A  WCI  17
DIAMOND ISL*     N/A     27  21  80 S3          N/A

$$

NYZ007-026>031-035-052-083-061200-
_____NORTHERN NEW YORK_____


CITY           SKY/WX    TMP DP  RH WIND       PRES   REMARKS
PLATTSBURGH    CLOUDY    27  18  69 S3        30.23R
SARANAC LAKE   LGT SNOW  23  21  92 SW6       30.13S FOG     WCI  16
MASSENA        LGT SNOW  29  24  82 SW7       30.21S WCI  22
OGDENSBURG*    LGT SNOW  30  28  93 SW5       30.20S WCI  25
POTSDAM*       LGT SNOW  28  28 100 SW8       30.20S WCI  20
WATERTOWN      CLOUDY    29  22  75 S8        30.22S WCI  21
ALBANY         PTCLDY    25  15  66 S7        30.32S WCI  17
GLENS FALLS    PTCLDY    22  16  78 S6        30.30R WCI  14

$$
NHZ002-005-011-061200-
_____NEW HAMPSHIRE_____


CITY           SKY/WX    TMP DP  RH WIND       PRES   REMARKS
LEBANON        CLOUDY    17  13  84 S5        30.27R WCI  10
MT WASHINGTON  BLWGSNOW   3   3 100 W56         N/A  VSB 1/16WCI -28
PLYMOUTH       FAIR      19  14  82 W3        30.27R
WHITEFIELD     CLOUDY    14  10  84 CALM      30.20R

$$

_____REGIONAL QUEBEC LOCATIONS_____


CITY           SKY/WX    TMP DP  RH WIND       PRES   REMARKS
MONTREAL       MOCLDY    25  19  80 W6        30.21R WCI  18
QUEBEC CITY    PTCLDY    10   5  79 W5        30.16S WCI   2
SHERBROOKE     CLOUDY    16  14  93 VRB2      30.16S

_____REGIONAL ONTARIO LOCATIONS_____


CITY           SKY/WX    TMP DP  RH WIND       PRES   REMARKS
OTTAWA         CLOUDY    23  19  86 CALM      30.18S

______KEY______
VSB  - VISIBILITY IN MILES
WCI  - WIND CHILL INDEX
HX   - HEAT INDEX
$$
NNNN



USA.gov is the U.S. government's official web portal to all federal, state and local government web resources and services.